[[{"header":{"parameterUnit":"m.s-1","parameterCategory":1,"la1":30.2991,"la2":30.254,"lo1":-89.0895,"lo2":-89.0444,"dy":0.0017,"dx":0.0017,"nx":28,"ny":28,"refTime":"2023-11-03T21:00:00:Z","depth":0,"parameterNumber":2,"parameterNumberName":"U-component_of_WINDS"},"data":[0,0,0,0,0,0,0,0,0,0,0,0,0,0,0,0,0,0,0,0,0,0,0,0,0,0,0,0,0,0,0,0,0,0,0,0,0,0,0,0,0,0,0,0,0,0,0,0,0,0,0,0,0,0,0,0,0,0,-1.8105,-1.8104,0,-1.8014,-1.8013,-1.8012,-1.7824,-1.782,-1.7817,-1.7813,-1.7725,-1.7726,-1.7727,0,0,0,0,0,0,0,0,0,0,0,0,0,-1.8121,-1.8122,-1.8105,-1.8104,-1.8103,-1.8014,-1.8013,-1.8012,-1.7825,-1.782,-1.7816,-1.7811,-1.7725,-1.7726,-1.7727,0,0,0,0,0,0,0,0,0,0,0,0,0,-1.8081,-1.8122,-1.8105,-1.7999,-1.7988,-1.8014,-1.8013,-1.8011,-1.7826,-1.782,-1.7815,-1.7809,-1.7724,-1.7726,-1.7727,-1.7851,0,0,-1.7733,-1.7734,0,0,0,0,0,0,0,0,-1.8083,-1.808,-1.8016,-1.8006,-1.7995,-1.7924,-1.7986,-1.7958,-1.7827,-1.7888,-1.7813,-1.7806,-1.7796,-1.7792,-1.7787,-1.7847,-1.7843,-1.7733,-1.7734,-1.7735,-1.7735,0,0,0,0,0,0,0,-1.8086,-1.8083,-1.8069,-1.8015,-1.8002,-1.7957,-1.7945,-1.798,-1.7875,-1.7882,-1.7868,-1.786,-1.7789,-1.7786,-1.7784,-1.7842,-1.7733,-1.7734,-1.7735,-1.7736,-1.7998,-1.8003,0,0,0,0,0,0,-1.8104,-1.8087,-1.8072,-1.8066,-1.8026,-1.7961,-1.7948,-1.7953,-1.7874,-1.7856,-1.7865,-1.7851,-1.7786,-1.7782,-1.778,-1.7919,-1.7735,-1.7736,-1.7737,-1.7992,-1.7999,-1.8006,0,0,0,0,0,0,-1.8105,-1.8104,-1.8076,-1.8073,-1.8066,-1.7967,-1.7974,-1.7954,-1.795,-1.7861,-1.7842,-1.788,-1.7781,-1.7777,-1.7834,-1.7914,-1.7737,-1.7739,-1.7985,-1.7994,-1.8002,-1.8201,0,0,0,0,0,0,-1.8106,-1.8106,-1.8152,-1.8075,-1.8066,-1.8132,-1.7979,-1.7956,-1.7953,-1.7935,-1.787,-1.7854,-1.7776,-1.7833,-1.7836,-1.7913,-1.774,-1.7978,-1.7989,-1.8,-1.8187,-1.8215,-1.824,0,0,0,0,0,-1.8107,-1.8212,-1.8155,-1.8154,-1.8121,-1.8137,-1.8132,-1.8039,-1.796,-1.8006,-1.7948,-1.7856,-1.7904,-1.784,-1.7842,-1.7921,-1.7972,-1.7986,-1.7999,-1.8175,-1.821,-1.8239,0,0,0,0,0,0,-1.8303,-1.82,-1.8136,-1.8218,-1.8187,-1.8105,-1.8159,-1.8079,-1.8071,-1.8054,-1.794,-1.7927,-1.8,-1.7965,-1.7896,-1.8036,-1.7923,-1.7938,-1.8057,-1.8089,-1.8115,-1.8123,-1.7742,0,0,0,0,0,-1.8355,-1.8375,-1.8285,-1.8367,-1.8354,-1.826,-1.8263,-1.8194,-1.8158,-1.8144,-1.809,-1.806,-1.8068,-1.8076,-1.8078,-1.8179,-1.8163,-1.8235,-1.8261,-1.8283,-1.8298,-1.8349,-1.838,-1.8049,-1.8049,-1.8049,0,0,-1.8465,-1.8411,-1.8431,-1.8405,-1.8372,-1.8397,-1.825,-1.8282,-1.8299,-1.8149,-1.82,-1.8159,-1.8118,-1.8198,-1.823,-1.8171,-1.8385,-1.83,-1.8319,-1.8321,-1.8366,-1.8397,-1.8425,-1.8058,-1.8057,-1.8055,0,0,-1.8677,-1.8638,-1.8701,-1.8671,-1.8623,-1.8559,-1.8575,-1.8504,-1.8471,-1.8518,-1.8406,-1.8425,-1.8441,-1.8416,-1.8406,-1.8605,-1.8521,-1.8609,-1.8749,-1.88,-1.8826,-1.8849,-1.8921,-1.8948,-1.8623,-1.8624,-1.8624,0,-1.882,-1.885,-1.8745,-1.8783,-1.8775,-1.8638,-1.8702,-1.8678,-1.8635,-1.8633,-1.8567,-1.8583,-1.8546,-1.8618,-1.8666,-1.8662,-1.8677,-1.8618,-1.883,-1.8852,-1.8872,-1.8939,-1.8967,-1.8635,-1.8634,-1.8633,-1.8632,0,-1.9028,-1.9051,-1.9108,-1.9068,-1.9065,-1.9117,-1.9021,-1.9031,-1.8961,-1.8905,-1.8956,-1.8905,-1.8894,-1.8906,-1.8839,-1.8968,-1.8933,-1.8851,-1.8736,-1.8916,-1.8978,-1.9003,-1.8651,-1.8647,-1.8644,-1.8641,0,0,-1.9364,-1.9262,-1.9285,-1.9264,-1.92,-1.9216,-1.9261,-1.9249,-1.9261,-1.9235,-1.927,-1.9286,-1.9208,-1.9197,-1.9125,-1.917,-1.9332,-1.9081,-1.9078,-1.9131,-1.9472,-1.9537,-1.9568,-1.9274,-1.9279,-1.9282,-1.9476,0,-1.9563,-1.9633,-1.9539,-1.963,-1.965,-1.9518,-1.9557,-1.9523,-1.9471,-1.9481,-1.9423,-1.9436,-1.9332,-1.9324,-1.9362,-1.9304,-1.9399,-1.9289,-1.9308,-1.931,-1.9325,-1.96,-1.9668,-1.9854,-1.95,-1.9504,-1.9506,0,-1.9805,-1.9789,-1.9882,-1.981,-1.9815,-1.9852,-1.9832,-1.9843,-1.9801,-1.976,-1.9746,-1.9659,-1.9699,-1.9585,-1.9639,-1.9566,-1.9568,-1.954,-1.9545,-1.9546,-1.9421,-1.961,-1.9911,-1.994,-1.9543,-1.954,-1.9538,0,-2.0043,-2.0043,-2.0099,-2.0085,-2.0003,-2.0032,-1.9999,-1.9951,-1.9949,-1.9932,-1.993,-1.9919,-1.9914,-1.9907,-1.982,-1.9745,-1.9885,-1.9764,-1.9854,-1.9856,-1.9892,-1.9891,-2.02,-1.989,-1.989,-1.9889,-1.9889,0,-2.0276,-2.0339,-2.0204,-2.0239,-2.0305,-2.0196,-2.0265,-2.0218,-2.0176,-2.02,-2.0085,-2.0111,-1.9993,-2.0006,-1.9938,-1.9993,-1.9992,-1.996,-1.9942,-1.9972,-1.9976,-1.9974,-1.9959,-1.9896,-1.9895,-1.9893,-1.9892,0,-2.0554,-2.0466,-2.0518,-2.0435,-2.0415,-2.0468,-2.0397,-2.0426,-2.0365,-2.0397,-2.0398,-2.0303,-2.0312,-2.0223,-2.0216,-2.017,-2.0258,-2.0216,-2.0272,-2.026,-2.0355,-2.0348,-2.0674,-2.0711,-2.0377,-2.0381,-2.0383,0,-2.071,-2.0755,-2.0675,-2.0682,-2.0654,-2.0667,-2.0664,-2.0557,-2.0559,-2.0513,-2.0548,-2.0547,-2.0541,-2.0561,-2.0493,-2.0486,-2.0444,-2.0559,-2.0443,-2.0471,-2.0448,-2.0447,-2.0451,-2.0584,-2.0588,-2.0592,-2.0595,0,-2.0997,-2.095,-2.0949,-2.0933,-2.0932,-2.0914,-2.0889,-2.0902,-2.0785,-2.0793,-2.08,-2.0795,-2.0785,-2.0787,-2.0766,-2.0733,-2.0646,-2.0631,-2.0652,-2.0684,-2.0715,-2.0701,-2.0341,-2.0625,-2.0622,-2.062,-2.0618,-2.0617,-2.1219,-2.1252,-2.1201,-2.1203,-2.1173,-2.1152,-2.1174,-2.1115,-2.1118,-2.1101,-2.1038,-2.1056,-2.1011,-2.0974,-2.0949,-2.0962,-2.0907,-2.0937,-2.0944,-2.0954,-2.0972,-2.0711,-2.0958,-2.0957,-2.0956,-2.0955,-2.0955,0,-2.15,-2.146,-2.1463,-2.1431,-2.1433,-2.1346,-2.1314,-2.1322,-2.1339,-2.1303,-2.1299,-2.1306,-2.1306,-2.1236,-2.1227,-2.1251,-2.1211,-2.1253,-2.1251,-2.1245,-2.1022,-2.1005,-2.1285,-2.1285,-2.1285,-2.1285,-2.1285,-2.1285,-2.1647,-2.1699,-2.1646,-2.1682,-2.1641,-2.1656,-2.1645,-2.1625,-2.1596,-2.1609,-2.1608,-2.1561,-2.1512,-2.1498,-2.1494,-2.1474,-2.1477,-2.1533,-2.1499,-2.1293,-2.1261,-2.123,-2.1214,-2.1534,-2.1534,-2.1721,-2.1723,-2.1724]},{"header":{"parameterUnit":"m.s-1","parameterCategory":1,"la1":30.2991,"la2":30.254,"lo1":-89.0895,"lo2":-89.0444,"dy":0.0017,"dx":0.0017,"nx":28,"ny":28,"refTime":"2023-11-03T21:00:00:Z","depth":0,"parameterNumber":3,"parameterNumberName":"V-component_of_WINDS"},"data":[0,0,0,0,0,0,0,0,0,0,0,0,0,0,0,0,0,0,0,0,0,0,0,0,0,0,0,0,0,0,0,0,0,0,0,0,0,0,0,0,0,0,0,0,0,0,0,0,0,0,0,0,0,0,0,0,0,0,-2.1673,-2.1675,0,-2.181,-2.1811,-2.1813,-2.1869,-2.1869,-2.1868,-2.1868,-2.2004,-2.2008,-2.2012,0,0,0,0,0,0,0,0,0,0,0,0,0,-2.1457,-2.1461,-2.1673,-2.1675,-2.1677,-2.181,-2.1811,-2.1813,-2.1869,-2.1869,-2.1868,-2.1868,-2.2003,-2.2007,-2.2012,0,0,0,0,0,0,0,0,0,0,0,0,0,-2.1568,-2.1462,-2.1673,-2.172,-2.1726,-2.1809,-2.1811,-2.1814,-2.1869,-2.1869,-2.1868,-2.1868,-2.2001,-2.2007,-2.2013,-2.2058,0,0,-2.2031,-2.2033,0,0,0,0,0,0,0,0,-2.1562,-2.1576,-2.1712,-2.1717,-2.1724,-2.1822,-2.1785,-2.1895,-2.1869,-2.1815,-2.1868,-2.1867,-2.1944,-2.1954,-2.1981,-2.2064,-2.207,-2.2031,-2.2035,-2.2037,-2.2039,0,0,0,0,0,0,0,-2.1554,-2.157,-2.1727,-2.1714,-2.1721,-2.1734,-2.1749,-2.1806,-2.188,-2.1819,-2.1824,-2.1839,-2.1947,-2.1975,-2.1984,-2.2072,-2.2031,-2.2036,-2.204,-2.2042,-2.2199,-2.2199,0,0,0,0,0,0,-2.1539,-2.1563,-2.1723,-2.1731,-2.164,-2.1738,-2.1755,-2.1791,-2.1879,-2.1892,-2.184,-2.1841,-2.1965,-2.1977,-2.1989,-2.2048,-2.2037,-2.2043,-2.2046,-2.2198,-2.2199,-2.2199,0,0,0,0,0,0,-2.1534,-2.1553,-2.1717,-2.1649,-2.1671,-2.1742,-2.1782,-2.1794,-2.1822,-2.1895,-2.1908,-2.1855,-2.1965,-2.1981,-2.204,-2.2053,-2.2045,-2.2051,-2.2197,-2.2198,-2.2199,-2.2164,0,0,0,0,0,0,-2.1528,-2.155,-2.1569,-2.1649,-2.1674,-2.1767,-2.1783,-2.1797,-2.1832,-2.1836,-2.1913,-2.1925,-2.1966,-2.2031,-2.2046,-2.2061,-2.2055,-2.2196,-2.2198,-2.2199,-2.2165,-2.2164,-2.2164,0,0,0,0,0,-2.152,-2.1553,-2.157,-2.1589,-2.1699,-2.1768,-2.1782,-2.183,-2.1833,-2.1852,-2.1899,-2.1922,-2.2049,-2.2037,-2.2054,-2.2071,-2.2196,-2.2197,-2.2199,-2.2165,-2.2164,-2.2164,0,0,0,0,0,0,-2.1472,-2.1564,-2.1584,-2.1644,-2.1698,-2.1777,-2.1802,-2.1828,-2.1881,-2.1882,-2.1938,-2.1955,-2.2009,-2.2046,-2.2031,-2.2119,-2.2124,-2.2129,-2.2093,-2.2093,-2.2092,-2.2082,-2.206,0,0,0,0,0,-2.1468,-2.1517,-2.1595,-2.1641,-2.1667,-2.173,-2.1762,-2.1794,-2.1851,-2.1874,-2.1925,-2.1979,-2.2031,-2.2064,-2.2116,-2.217,-2.2188,-2.219,-2.219,-2.2189,-2.2192,-2.2224,-2.2226,-2.2204,-2.2204,-2.2204,0,0,-2.1461,-2.1518,-2.1545,-2.1633,-2.1678,-2.1727,-2.1748,-2.1799,-2.1836,-2.1881,-2.1941,-2.198,-2.2044,-2.2101,-2.2129,-2.2133,-2.2202,-2.2191,-2.2189,-2.2194,-2.2225,-2.2227,-2.2229,-2.2205,-2.2205,-2.2205,0,0,-2.1474,-2.1522,-2.1565,-2.1611,-2.168,-2.1721,-2.1731,-2.1807,-2.1835,-2.1896,-2.1932,-2.1975,-2.2064,-2.2108,-2.2142,-2.2171,-2.2194,-2.2186,-2.2183,-2.2213,-2.2214,-2.2216,-2.2226,-2.2229,-2.2189,-2.2189,-2.2189,0,-2.1456,-2.1532,-2.1584,-2.1633,-2.167,-2.1715,-2.1759,-2.18,-2.1881,-2.1906,-2.191,-2.2022,-2.2068,-2.2136,-2.2144,-2.217,-2.2182,-2.2177,-2.221,-2.2212,-2.2215,-2.2225,-2.2229,-2.2188,-2.2188,-2.2188,-2.2188,0,-2.1507,-2.1559,-2.1586,-2.1665,-2.1705,-2.1751,-2.1809,-2.1843,-2.1872,-2.1912,-2.1974,-2.203,-2.2095,-2.2113,-2.2141,-2.2185,-2.2186,-2.22,-2.2206,-2.2215,-2.2225,-2.223,-2.2186,-2.2186,-2.2187,-2.2187,0,0,-2.1493,-2.1601,-2.1609,-2.1646,-2.1725,-2.1766,-2.1814,-2.1878,-2.1906,-2.196,-2.2001,-2.2076,-2.2089,-2.2127,-2.216,-2.2187,-2.2206,-2.2197,-2.22,-2.2197,-2.2258,-2.2247,-2.2251,-2.2223,-2.2223,-2.2224,-2.2252,0,-2.1516,-2.1605,-2.1653,-2.1721,-2.1769,-2.1813,-2.1854,-2.1907,-2.1946,-2.1992,-2.2035,-2.2087,-2.21,-2.2124,-2.2152,-2.2198,-2.2219,-2.2196,-2.226,-2.2262,-2.2243,-2.2257,-2.2245,-2.2269,-2.2257,-2.2258,-2.2258,0,-2.1555,-2.161,-2.1683,-2.1757,-2.1779,-2.1816,-2.1879,-2.1922,-2.1982,-2.2009,-2.2052,-2.2085,-2.2136,-2.2139,-2.221,-2.2193,-2.2222,-2.2249,-2.2251,-2.2259,-2.226,-2.2264,-2.2278,-2.2281,-2.2265,-2.2265,-2.2264,0,-2.1537,-2.163,-2.1686,-2.1715,-2.1803,-2.1828,-2.1865,-2.1925,-2.196,-2.2015,-2.2038,-2.2097,-2.2129,-2.2174,-2.2221,-2.2219,-2.2287,-2.2294,-2.231,-2.2309,-2.2322,-2.2321,-2.2341,-2.2341,-2.2341,-2.2341,-2.2341,0,-2.1558,-2.16,-2.1679,-2.1713,-2.1762,-2.1816,-2.1863,-2.1904,-2.1957,-2.1999,-2.204,-2.2078,-2.2139,-2.2185,-2.2223,-2.2276,-2.229,-2.2312,-2.2321,-2.2309,-2.2306,-2.2328,-2.2327,-2.2342,-2.2342,-2.2342,-2.2341,0,-2.1546,-2.16,-2.1664,-2.1742,-2.1762,-2.1795,-2.1862,-2.1896,-2.1937,-2.199,-2.2006,-2.2071,-2.2127,-2.2179,-2.2254,-2.2279,-2.2332,-2.2344,-2.2312,-2.2317,-2.233,-2.2328,-2.2365,-2.2372,-2.2367,-2.2367,-2.2367,0,-2.1555,-2.159,-2.1672,-2.1703,-2.174,-2.1791,-2.1828,-2.1882,-2.1918,-2.199,-2.2015,-2.2075,-2.2125,-2.2212,-2.2265,-2.2323,-2.2336,-2.2345,-2.2345,-2.2331,-2.2336,-2.2334,-2.2337,-2.2344,-2.2344,-2.2344,-2.2344,0,-2.1567,-2.1592,-2.1644,-2.1705,-2.1748,-2.1799,-2.185,-2.1874,-2.1938,-2.1976,-2.2035,-2.2074,-2.2151,-2.2209,-2.2272,-2.231,-2.2337,-2.2344,-2.235,-2.2337,-2.2317,-2.2328,-2.2309,-2.2342,-2.2342,-2.2343,-2.2343,-2.2343,-2.1566,-2.1598,-2.1661,-2.1718,-2.1763,-2.181,-2.1846,-2.1893,-2.1943,-2.201,-2.2039,-2.2098,-2.2157,-2.2245,-2.2283,-2.2329,-2.2335,-2.2345,-2.2347,-2.2349,-2.2346,-2.231,-2.2341,-2.2341,-2.2341,-2.2341,-2.2341,0,-2.1579,-2.1622,-2.1673,-2.1745,-2.1789,-2.1812,-2.1871,-2.1906,-2.1958,-2.2011,-2.206,-2.2127,-2.2184,-2.2241,-2.2301,-2.2327,-2.2341,-2.2341,-2.2339,-2.2348,-2.2337,-2.2325,-2.2329,-2.2329,-2.2329,-2.2329,-2.2329,-2.2329,-2.1591,-2.1647,-2.168,-2.1758,-2.1801,-2.186,-2.1891,-2.1935,-2.1978,-2.2051,-2.2099,-2.2137,-2.2192,-2.2256,-2.2308,-2.2324,-2.2344,-2.234,-2.2359,-2.2348,-2.2348,-2.2349,-2.2338,-2.2344,-2.2344,-2.2365,-2.2366,-2.2366]}]]